Location: Brachbach
(49.1847°N, 9.7240°E)
Time: 05:21:29
(UTC+00:00)

PCSat - Pass Details

Date: 18 March 2026
Orbit: 780 x 790 km, 67.1° (Epoch: 13 April)

Event Time Altitude Azimuth Distance (km) Brightness Sun altitude
Exits shadow 00:35:54 13° 338° (NNW) 2,126 12.2 -39.8°
Maximum altitude 00:36:25 14° 344° (NNW) 2,117 12.2 -39.7°
Drops below altitude 10° 00:39:05 10° 14° (NNE) 2,365 12.7 -39.6°
Sets 00:42:52 0° 41° (NE) 3,296 13.6 -39.3°
